Location: Newark
(41.6500°N, 71.4833°W)
Time: 20:34:56
(UTC+00:00)

deb Explorer IX - Pass Details

Date: 01 February 2020
Orbit: 549 x 1099 km, 38.8° (Epoch: 22 February)

Event Time Altitude Azimuth Distance (km) Brightness Sun altitude
Rises 21:50:46 0° 200° (SSW) 3,171 ? 0.9°
Reaches altitude 10° 21:53:53 10° 180° (S) 2,361 ? 0.4°
Maximum altitude 21:57:26 17° 141° (SE) 2,029 ? -0.2°
Drops below altitude 10° 22:01:16 10° 103° (ESE) 2,615 ? -0.9°
Enters shadow 22:04:53 - 85° (E) 3,644 ? -1.5°
Sets 22:04:59 0° 85° (E) 3,672 - -1.5°
